Terminal Aerodrome Forecast
Issued by NWS Miami, FL

Home | Current Version | Previous Version | Text Only | Print | Product List | Glossary On
Versions: 1 2 3 4 5 6 7 8 9 10 11 12 13 14 15 16 17 18 19 20 21 22 23 24 25 26 27 28 29 30 31 32 33 34 35 36 37 38 39 40 41 42 43
000
FTUS42 KMFL 090529
TAFAPF
TAF
KAPF 090529Z 0906/1006 27013G22KT P6SM VCSH SCT040 BKN050 BKN080
     FM091100 29016G25KT P6SM BKN050 BKN250
     FM092300 27011KT P6SM BKN050 BKN250=

USA.gov is the U.S. government's official web portal to all federal, state and local government web resources and services.